Time,TemperatureF,DewpointF,PressureIn,WindDirection,WindDirectionDegrees,WindSpeedMPH,WindSpeedGustMPH,Humidity,HourlyPrecipIn,Conditions,Clouds,dailyrainin,SolarRadiationWatts/m^2,SoftwareType,DateUTC
2013-06-27 00:00:00,66.5,64.7,29.79,East,89,1.0,5.0,94,0.00,,BKN020,0.00,0.00,VWS V14.01,2013-06-27 04:00:00,
2013-06-27 00:01:00,66.2,64.4,29.79,East,89,2.0,5.0,94,0.00,,BKN036,0.00,0.00,VWS V14.01,2013-06-27 04:01:00,
2013-06-27 00:02:00,66.0,64.2,29.79,East,88,3.0,3.0,94,0.00,,BKN036,0.00,0.00,VWS V14.01,2013-06-27 04:02:00,
2013-06-27 00:04:00,65.9,64.1,29.79,East,84,4.0,5.0,94,0.00,,BKN036,0.00,0.00,VWS V14.01,2013-06-27 04:04:00,
2013-06-27 00:05:00,66.1,64.3,29.79,East,88,2.0,5.0,94,0.00,,BKN020,0.00,0.00,VWS V14.01,2013-06-27 04:05:00,
2013-06-27 00:09:00,65.5,63.7,29.79,East,81,4.0,5.0,94,0.00,,BKN036,0.00,0.00,VWS V14.01,2013-06-27 04:09:00,
2013-06-27 00:10:00,65.7,63.9,29.79,East,82,5.0,5.0,94,0.00,,BKN020,0.00,0.00,VWS V14.01,2013-06-27 04:10:00,
2013-06-27 00:15:00,65.3,63.5,29.79,East,81,3.0,5.0,94,0.00,,BKN036,0.00,0.00,VWS V14.01,2013-06-27 04:15:00,
2013-06-27 00:20:00,65.0,63.2,29.79,East,80,4.0,5.0,94,0.00,,BKN036,0.00,0.00,VWS V14.01,2013-06-27 04:20:00,
2013-06-27 00:25:00,64.9,63.4,29.79,East,80,3.0,4.0,95,0.00,,BKN036,0.00,0.00,VWS V14.01,2013-06-27 04:25:00,
2013-06-27 00:30:00,64.7,62.9,29.78,East,80,3.0,4.0,94,0.00,,BKN036,0.00,0.00,VWS V14.01,2013-06-27 04:30:00,
2013-06-27 00:35:00,64.5,63.0,29.79,East,80,0.0,4.0,95,0.00,,BKN036,0.00,0.00,VWS V14.01,2013-06-27 04:35:00,
2013-06-27 00:40:00,64.4,62.9,29.79,East,80,1.0,2.0,95,0.00,,BKN036,0.00,0.00,VWS V14.01,2013-06-27 04:40:00,
2013-06-27 00:45:00,64.2,62.7,29.79,East,80,3.0,4.0,95,0.00,,BKN036,0.00,0.00,VWS V14.01,2013-06-27 04:45:00,
2013-06-27 00:50:00,64.1,62.6,29.79,East,80,2.0,3.0,95,0.00,,BKN036,0.00,0.00,VWS V14.01,2013-06-27 04:50:00,
2013-06-27 00:55:00,63.9,62.4,29.79,East,80,2.0,4.0,95,0.00,,BKN036,0.00,0.00,VWS V14.01,2013-06-27 04:55:00,
2013-06-27 01:00:00,63.9,62.4,29.78,East,80,2.0,3.0,95,0.00,,BKN036,0.00,0.00,VWS V14.01,2013-06-27 05:00:00,
2013-06-27 01:05:00,63.8,62.3,29.78,East,80,2.0,3.0,95,0.00,,BKN036,0.00,0.00,VWS V14.01,2013-06-27 05:05:00,
2013-06-27 01:10:00,63.7,62.2,29.78,East,80,3.0,4.0,95,0.00,,BKN036,0.00,0.00,VWS V14.01,2013-06-27 05:10:00,
2013-06-27 01:15:00,63.6,62.2,29.78,East,80,2.0,4.0,95,0.00,,BKN036,0.00,0.00,VWS V14.01,2013-06-27 05:15:00,
2013-06-27 01:20:00,63.6,62.2,29.78,East,80,2.0,4.0,95,0.00,,BKN020,0.00,0.00,VWS V14.01,2013-06-27 05:20:00,
2013-06-27 01:21:00,63.5,62.0,29.78,East,80,3.0,4.0,95,0.00,,BKN036,0.00,0.00,VWS V14.01,2013-06-27 05:21:00,
2013-06-27 01:25:00,63.4,62.0,29.78,ENE,78,0.0,5.0,95,0.00,,BKN020,0.00,0.00,VWS V14.01,2013-06-27 05:25:00,
2013-06-27 01:26:00,63.4,62.0,29.78,ENE,78,3.0,4.0,95,0.00,,BKN036,0.00,0.00,VWS V14.01,2013-06-27 05:26:00,
2013-06-27 01:30:00,63.3,61.8,29.78,ENE,77,0.0,4.0,95,0.00,,BKN020,0.00,0.00,VWS V14.01,2013-06-27 05:30:00,
2013-06-27 01:31:00,63.3,61.8,29.78,ENE,77,3.0,4.0,95,0.00,,BKN036,0.00,0.00,VWS V14.01,2013-06-27 05:31:00,
2013-06-27 01:35:00,63.3,61.8,29.78,ENE,77,1.0,4.0,95,0.00,,BKN020,0.00,0.00,VWS V14.01,2013-06-27 05:35:00,
2013-06-27 01:36:00,63.1,61.7,29.78,ENE,76,1.0,3.0,95,0.00,,BKN036,0.00,0.00,VWS V14.01,2013-06-27 05:36:00,
2013-06-27 01:40:00,63.1,61.7,29.78,ENE,76,0.0,3.0,95,0.00,,BKN020,0.00,0.00,VWS V14.01,2013-06-27 05:40:00,
2013-06-27 01:41:00,63.0,61.5,29.78,ENE,76,2.0,4.0,95,0.00,,BKN036,0.00,0.00,VWS V14.01,2013-06-27 05:41:00,
2013-06-27 01:45:00,62.9,61.5,29.78,ENE,76,4.0,4.0,95,0.00,,BKN020,0.00,0.00,VWS V14.01,2013-06-27 05:45:00,
2013-06-27 01:46:00,62.8,61.3,29.79,ENE,75,2.0,4.0,95,0.00,,BKN036,0.00,0.00,VWS V14.01,2013-06-27 05:46:00,
2013-06-27 01:50:00,62.8,61.3,29.79,ENE,76,3.0,4.0,95,0.00,,BKN020,0.00,0.00,VWS V14.01,2013-06-27 05:50:00,
2013-06-27 01:51:00,62.7,61.2,29.78,ENE,76,0.0,3.0,95,0.00,,BKN036,0.00,0.00,VWS V14.01,2013-06-27 05:51:00,
2013-06-27 01:55:00,62.8,61.3,29.78,ENE,74,3.0,4.0,95,0.00,,BKN020,0.00,0.00,VWS V14.01,2013-06-27 05:55:00,
2013-06-27 01:56:00,62.6,61.5,29.79,ENE,67,2.0,5.0,96,0.00,,BKN036,0.00,0.00,VWS V14.01,2013-06-27 05:56:00,
2013-06-27 02:00:00,62.6,61.5,29.78,NE,51,4.0,5.0,96,0.00,,BKN020,0.00,0.00,VWS V14.01,2013-06-27 06:00:00,
2013-06-27 02:01:00,62.5,61.3,29.78,NNE,27,2.0,5.0,96,0.00,,BKN036,0.00,0.00,VWS V14.01,2013-06-27 06:01:00,
2013-06-27 02:05:00,62.5,61.3,29.78,NNE,28,1.0,5.0,96,0.00,,BKN020,0.00,0.00,VWS V14.01,2013-06-27 06:05:00,
2013-06-27 02:06:00,62.4,61.2,29.78,NNE,17,2.0,5.0,96,0.00,,BKN036,0.00,0.00,VWS V14.01,2013-06-27 06:06:00,
2013-06-27 02:10:00,62.4,61.2,29.78,NNE,17,2.0,5.0,96,0.00,,BKN020,0.00,0.00,VWS V14.01,2013-06-27 06:10:00,
2013-06-27 02:11:00,62.4,61.2,29.79,NNE,17,0.0,3.0,96,0.00,,BKN036,0.00,0.00,VWS V14.01,2013-06-27 06:11:00,
2013-06-27 02:15:00,62.4,61.2,29.79,NNE,17,0.0,3.0,96,0.00,,BKN020,0.00,0.00,VWS V14.01,2013-06-27 06:15:00,
2013-06-27 02:16:00,62.4,61.2,29.78,NNE,26,2.0,4.0,96,0.00,,BKN036,0.00,0.00,VWS V14.01,2013-06-27 06:16:00,
2013-06-27 02:20:00,62.4,61.2,29.78,NNE,27,2.0,4.0,96,0.00,,BKN020,0.00,0.00,VWS V14.01,2013-06-27 06:20:00,
2013-06-27 02:21:00,62.3,61.2,29.78,NNE,27,0.0,3.0,96,0.00,,BKN036,0.00,0.00,VWS V14.01,2013-06-27 06:21:00,
2013-06-27 02:25:00,62.4,61.2,29.78,NNE,26,1.0,3.0,96,0.00,,BKN020,0.00,0.00,VWS V14.01,2013-06-27 06:25:00,
2013-06-27 02:26:00,62.3,61.2,29.78,NNE,26,0.0,2.0,96,0.00,,BKN036,0.00,0.00,VWS V14.01,2013-06-27 06:26:00,
2013-06-27 02:30:00,62.3,61.2,29.78,NNE,26,2.0,2.0,96,0.00,,BKN020,0.00,0.00,VWS V14.01,2013-06-27 06:30:00,
2013-06-27 02:32:00,62.3,61.2,29.78,NNE,27,1.0,4.0,96,0.00,,BKN036,0.00,0.00,VWS V14.01,2013-06-27 06:32:00,
2013-06-27 02:35:00,62.2,61.0,29.78,NNE,27,3.0,4.0,96,0.00,,BKN020,0.00,0.00,VWS V14.01,2013-06-27 06:35:00,
2013-06-27 02:37:00,62.2,61.0,29.78,NNE,32,3.0,5.0,96,0.00,,BKN036,0.00,0.00,VWS V14.01,2013-06-27 06:37:00,
2013-06-27 02:40:00,62.2,61.0,29.78,NNE,31,2.0,5.0,96,0.00,,BKN020,0.00,0.00,VWS V14.01,2013-06-27 06:40:00,
2013-06-27 02:42:00,62.2,61.0,29.77,NNE,32,2.0,4.0,96,0.00,,BKN036,0.00,0.00,VWS V14.01,2013-06-27 06:42:00,
2013-06-27 02:45:00,62.2,61.0,29.77,NNE,32,2.0,4.0,96,0.00,,BKN020,0.00,0.00,VWS V14.01,2013-06-27 06:45:00,
2013-06-27 02:47:00,62.2,61.0,29.77,NE,44,1.0,4.0,96,0.00,,BKN036,0.00,0.00,VWS V14.01,2013-06-27 06:47:00,
2013-06-27 02:50:00,62.2,61.0,29.77,NE,44,4.0,4.0,96,0.00,,BKN020,0.00,0.00,VWS V14.01,2013-06-27 06:50:00,
2013-06-27 02:52:00,62.2,61.0,29.77,NE,44,0.0,4.0,96,0.00,,BKN036,0.00,0.00,VWS V14.01,2013-06-27 06:52:00,
2013-06-27 02:55:00,62.2,61.0,29.77,NE,44,1.0,4.0,96,0.00,,BKN020,0.00,0.00,VWS V14.01,2013-06-27 06:55:00,
2013-06-27 02:57:00,62.2,61.0,29.77,NE,46,1.0,4.0,96,0.00,,BKN036,0.00,0.00,VWS V14.01,2013-06-27 06:57:00,
2013-06-27 03:00:00,62.2,61.0,29.77,NE,45,1.0,4.0,96,0.00,,BKN020,0.00,0.00,VWS V14.01,2013-06-27 07:00:00,
2013-06-27 03:02:00,62.2,61.0,29.77,ENE,78,3.0,5.0,96,0.00,,BKN036,0.00,0.00,VWS V14.01,2013-06-27 07:02:00,
2013-06-27 03:05:00,62.2,61.0,29.77,ENE,78,2.0,5.0,96,0.00,,BKN020,0.00,0.00,VWS V14.01,2013-06-27 07:05:00,
2013-06-27 03:07:00,62.2,61.0,29.77,ENE,78,2.0,4.0,96,0.00,,BKN036,0.00,0.00,VWS V14.01,2013-06-27 07:07:00,
2013-06-27 03:10:00,62.2,61.0,29.77,ENE,78,1.0,4.0,96,0.00,,BKN020,0.00,0.00,VWS V14.01,2013-06-27 07:10:00,
2013-06-27 03:12:00,62.1,61.0,29.77,East,79,3.0,4.0,96,0.00,,BKN036,0.00,0.00,VWS V14.01,2013-06-27 07:12:00,
2013-06-27 03:15:00,62.1,61.0,29.77,ENE,78,3.0,4.0,96,0.00,,BKN020,0.00,0.00,VWS V14.01,2013-06-27 07:15:00,
2013-06-27 03:17:00,62.1,61.0,29.78,ENE,78,2.0,4.0,96,0.00,,BKN036,0.00,0.00,VWS V14.01,2013-06-27 07:17:00,
2013-06-27 03:20:00,62.1,61.0,29.78,ENE,78,2.0,4.0,96,0.00,,BKN020,0.00,0.00,VWS V14.01,2013-06-27 07:20:00,
2013-06-27 03:22:00,62.1,61.0,29.77,ENE,78,3.0,5.0,96,0.00,,BKN036,0.00,0.00,VWS V14.01,2013-06-27 07:22:00,
2013-06-27 03:25:00,62.1,61.0,29.77,ENE,78,3.0,5.0,96,0.00,,BKN020,0.00,0.00,VWS V14.01,2013-06-27 07:25:00,
2013-06-27 03:27:00,62.0,60.8,29.77,ENE,78,3.0,5.0,96,0.00,,BKN036,0.00,0.00,VWS V14.01,2013-06-27 07:27:00,
2013-06-27 03:30:00,62.0,60.8,29.77,ENE,78,3.0,5.0,96,0.00,,BKN020,0.00,0.00,VWS V14.01,2013-06-27 07:30:00,
2013-06-27 03:32:00,62.0,60.8,29.77,ENE,78,1.0,5.0,96,0.00,,BKN036,0.00,0.00,VWS V14.01,2013-06-27 07:32:00,
2013-06-27 03:35:00,62.0,60.8,29.77,ENE,78,1.0,5.0,96,0.00,,BKN020,0.00,0.00,VWS V14.01,2013-06-27 07:35:00,
2013-06-27 03:37:00,61.9,60.8,29.77,ENE,78,3.0,4.0,96,0.00,,BKN036,0.00,0.00,VWS V14.01,2013-06-27 07:37:00,
2013-06-27 03:40:00,61.9,60.8,29.77,East,79,3.0,4.0,96,0.00,,BKN020,0.00,0.00,VWS V14.01,2013-06-27 07:40:00,
2013-06-27 03:42:00,61.7,60.5,29.77,ENE,77,3.0,4.0,96,0.00,,BKN036,0.00,0.00,VWS V14.01,2013-06-27 07:42:00,
2013-06-27 03:45:00,61.7,60.5,29.77,ENE,77,2.0,6.0,96,0.00,,BKN020,0.00,0.00,VWS V14.01,2013-06-27 07:45:00,
2013-06-27 03:48:00,61.6,60.5,29.77,ENE,76,3.0,4.0,96,0.00,,BKN036,0.00,0.00,VWS V14.01,2013-06-27 07:48:00,
2013-06-27 03:50:00,61.6,60.5,29.77,ENE,76,2.0,5.0,96,0.00,,BKN020,0.00,0.00,VWS V14.01,2013-06-27 07:50:00,
2013-06-27 03:53:00,61.5,60.3,29.78,ENE,76,3.0,3.0,96,0.00,,BKN036,0.00,0.00,VWS V14.01,2013-06-27 07:53:00,
2013-06-27 03:55:00,61.5,60.3,29.78,ENE,76,1.0,4.0,96,0.00,,BKN020,0.00,0.00,VWS V14.01,2013-06-27 07:55:00,
2013-06-27 03:58:00,61.5,60.3,29.77,ENE,78,2.0,3.0,96,0.00,,BKN036,0.00,0.00,VWS V14.01,2013-06-27 07:58:00,
2013-06-27 04:00:00,61.5,60.3,29.77,ENE,78,1.0,5.0,96,0.00,,BKN020,0.00,0.00,VWS V14.01,2013-06-27 08:00:00,
2013-06-27 04:03:00,61.2,60.0,29.77,ENE,75,6.0,6.0,96,0.00,,BKN036,0.00,0.00,VWS V14.01,2013-06-27 08:03:00,
2013-06-27 04:05:00,61.2,60.0,29.77,East,80,4.0,8.0,96,0.00,,BKN020,0.00,0.00,VWS V14.01,2013-06-27 08:05:00,
2013-06-27 04:08:00,61.0,59.9,29.77,ENE,74,2.0,5.0,96,0.00,,BKN036,0.00,0.00,VWS V14.01,2013-06-27 08:08:00,
2013-06-27 04:10:00,61.0,59.9,29.77,ENE,73,5.0,7.0,96,0.00,,BKN020,0.00,0.00,VWS V14.01,2013-06-27 08:10:00,
2013-06-27 04:13:00,60.9,59.8,29.77,East,79,2.0,4.0,96,0.00,,BKN036,0.00,0.00,VWS V14.01,2013-06-27 08:13:00,
2013-06-27 04:15:00,60.9,59.8,29.77,East,80,4.0,6.0,96,0.00,,BKN020,0.00,0.00,VWS V14.01,2013-06-27 08:15:00,
2013-06-27 04:18:00,60.8,59.7,29.76,East,81,1.0,3.0,96,0.00,,BKN036,0.00,0.00,VWS V14.01,2013-06-27 08:18:00,
2013-06-27 04:20:00,60.8,59.7,29.76,East,81,3.0,6.0,96,0.00,,BKN020,0.00,0.00,VWS V14.01,2013-06-27 08:20:00,
2013-06-27 04:23:00,60.6,59.5,29.76,ENE,65,3.0,4.0,96,0.00,,BKN036,0.00,0.00,VWS V14.01,2013-06-27 08:23:00,
2013-06-27 04:25:00,60.7,59.6,29.76,ENE,65,3.0,6.0,96,0.00,,BKN020,0.00,0.00,VWS V14.01,2013-06-27 08:25:00,
2013-06-27 04:28:00,60.5,59.4,29.77,ENE,65,4.0,4.0,96,0.00,,BKN036,0.00,0.00,VWS V14.01,2013-06-27 08:28:00,
2013-06-27 04:30:00,60.5,59.4,29.77,ENE,65,4.0,5.0,96,0.00,,BKN020,0.00,0.00,VWS V14.01,2013-06-27 08:30:00,
2013-06-27 04:33:00,60.6,59.5,29.77,ENE,65,3.0,4.0,96,0.00,,BKN036,0.00,0.00,VWS V14.01,2013-06-27 08:33:00,
2013-06-27 04:35:00,60.5,59.4,29.77,ENE,65,3.0,4.0,96,0.00,,BKN020,0.00,0.00,VWS V14.01,2013-06-27 08:35:00,
2013-06-27 04:38:00,60.4,59.3,29.77,ESE,117,5.0,8.0,96,0.00,,BKN036,0.00,0.00,VWS V14.01,2013-06-27 08:38:00,
2013-06-27 04:40:00,60.4,59.3,29.77,ESE,115,7.0,9.0,96,0.00,,BKN020,0.00,0.00,VWS V14.01,2013-06-27 08:40:00,
2013-06-27 04:43:00,60.2,59.1,29.77,ESE,106,5.0,5.0,96,0.00,,BKN036,0.00,0.00,VWS V14.01,2013-06-27 08:43:00,
2013-06-27 04:45:00,60.2,59.1,29.77,ESE,107,2.0,8.0,96,0.00,,BKN020,0.00,0.00,VWS V14.01,2013-06-27 08:45:00,
2013-06-27 04:48:00,60.1,59.0,29.77,East,98,2.0,4.0,96,0.00,,BKN036,0.00,0.00,VWS V14.01,2013-06-27 08:48:00,
2013-06-27 04:50:00,60.1,59.0,29.77,East,99,4.0,7.0,96,0.00,,BKN020,0.00,0.00,VWS V14.01,2013-06-27 08:50:00,
2013-06-27 04:53:00,60.0,58.9,29.76,ENE,71,4.0,6.0,96,0.00,,BKN036,0.00,0.00,VWS V14.01,2013-06-27 08:53:00,
2013-06-27 04:55:00,60.0,58.9,29.76,East,82,4.0,6.0,96,0.00,,BKN020,0.00,0.00,VWS V14.01,2013-06-27 08:55:00,
2013-06-27 04:58:00,59.9,58.8,29.75,ENE,61,3.0,10.0,96,0.00,,BKN036,0.00,0.00,VWS V14.01,2013-06-27 08:58:00,
2013-06-27 05:00:00,59.9,58.8,29.76,ENE,70,5.0,10.0,96,0.00,,BKN020,0.00,0.00,VWS V14.01,2013-06-27 09:00:00,
2013-06-27 05:03:00,59.8,58.7,29.76,East,80,2.0,5.0,96,0.00,,BKN036,0.00,0.00,VWS V14.01,2013-06-27 09:03:00,
2013-06-27 05:05:00,59.8,58.7,29.75,East,80,5.0,10.0,96,0.00,,BKN020,0.00,0.00,VWS V14.01,2013-06-27 09:05:00,
2013-06-27 05:09:00,59.7,58.6,29.77,ENE,76,4.0,6.0,96,0.00,,BKN036,0.00,0.00,VWS V14.01,2013-06-27 09:09:00,
2013-06-27 05:10:00,59.8,58.7,29.76,ENE,78,3.0,5.0,96,0.00,,BKN020,0.00,0.00,VWS V14.01,2013-06-27 09:10:00,
2013-06-27 05:14:00,59.6,58.5,29.78,ENE,76,2.0,4.0,96,0.00,,BKN036,0.00,0.00,VWS V14.01,2013-06-27 09:14:00,
2013-06-27 05:15:00,59.6,58.5,29.77,ENE,77,3.0,6.0,96,0.00,,BKN020,0.00,0.00,VWS V14.01,2013-06-27 09:15:00,
2013-06-27 05:19:00,59.5,58.4,29.77,ENE,76,2.0,5.0,96,0.00,,BKN036,0.00,0.00,VWS V14.01,2013-06-27 09:19:00,
2013-06-27 05:20:00,59.5,58.4,29.77,ENE,76,3.0,4.0,96,0.00,,BKN020,0.00,0.00,VWS V14.01,2013-06-27 09:20:00,
2013-06-27 05:24:00,59.5,58.4,29.77,ENE,66,0.0,3.0,96,0.00,,BKN036,0.00,5.00,VWS V14.01,2013-06-27 09:24:00,
2013-06-27 05:25:00,59.5,58.4,29.77,ENE,65,3.0,7.0,96,0.00,,BKN020,0.00,0.00,VWS V14.01,2013-06-27 09:25:00,
2013-06-27 05:29:00,59.4,58.3,29.78,East,83,4.0,5.0,96,0.00,,BKN036,0.00,5.00,VWS V14.01,2013-06-27 09:29:00,
2013-06-27 05:30:00,59.4,58.3,29.78,East,83,4.0,7.0,96,0.00,,BKN020,0.00,5.00,VWS V14.01,2013-06-27 09:30:00,
2013-06-27 05:34:00,59.4,58.3,29.78,East,83,3.0,4.0,96,0.00,,BKN036,0.00,7.00,VWS V14.01,2013-06-27 09:34:00,
2013-06-27 05:35:00,59.4,58.3,29.78,East,82,1.0,5.0,96,0.00,,BKN020,0.00,7.00,VWS V14.01,2013-06-27 09:35:00,
2013-06-27 05:39:00,59.5,58.4,29.79,ESE,107,5.0,5.0,96,0.00,,BKN036,0.00,5.00,VWS V14.01,2013-06-27 09:39:00,
2013-06-27 05:40:00,59.4,58.3,29.79,ESE,107,5.0,8.0,96,0.00,,BKN020,0.00,5.00,VWS V14.01,2013-06-27 09:40:00,
2013-06-27 05:44:00,59.5,58.4,29.80,ESE,107,4.0,5.0,96,0.00,,BKN036,0.00,5.00,VWS V14.01,2013-06-27 09:44:00,
2013-06-27 05:45:00,59.4,58.3,29.79,ESE,107,2.0,6.0,96,0.00,,BKN020,0.00,5.00,VWS V14.01,2013-06-27 09:45:00,
2013-06-27 05:49:00,59.5,58.4,29.80,ESE,107,7.0,7.0,96,0.00,,BKN036,0.00,12.00,VWS V14.01,2013-06-27 09:49:00,
2013-06-27 05:50:00,59.5,58.4,29.79,ESE,107,4.0,5.0,96,0.00,,BKN020,0.00,7.00,VWS V14.01,2013-06-27 09:50:00,
2013-06-27 05:54:00,59.4,58.3,29.80,ESE,109,4.0,7.0,96,0.00,,BKN036,0.00,12.00,VWS V14.01,2013-06-27 09:54:00,
2013-06-27 05:55:00,59.4,58.3,29.80,ESE,105,6.0,7.0,96,0.00,,BKN020,0.00,14.00,VWS V14.01,2013-06-27 09:55:00,
2013-06-27 05:59:00,59.4,58.3,29.81,East,98,5.0,7.0,96,0.00,,BKN036,0.00,11.00,VWS V14.01,2013-06-27 09:59:00,
2013-06-27 06:00:00,59.4,58.3,29.80,East,85,6.0,7.0,96,0.00,,BKN020,0.00,11.00,VWS V14.01,2013-06-27 10:00:00,
2013-06-27 06:04:00,59.5,58.4,29.81,East,94,5.0,6.0,96,0.00,,BKN036,0.00,11.00,VWS V14.01,2013-06-27 10:04:00,
2013-06-27 06:05:00,59.4,58.3,29.80,East,98,2.0,7.0,96,0.00,,BKN020,0.00,9.00,VWS V14.01,2013-06-27 10:05:00,
2013-06-27 06:09:00,59.5,58.4,29.81,East,94,5.0,5.0,96,0.00,,BKN036,0.00,16.00,VWS V14.01,2013-06-27 10:09:00,
2013-06-27 06:10:00,59.5,58.4,29.81,East,94,2.0,6.0,96,0.00,,BKN020,0.00,14.00,VWS V14.01,2013-06-27 10:10:00,
2013-06-27 06:14:00,59.6,58.5,29.81,East,93,2.0,2.0,96,0.00,,BKN036,0.00,16.00,VWS V14.01,2013-06-27 10:14:00,
2013-06-27 06:15:00,59.6,58.5,29.81,East,92,2.0,6.0,96,0.00,,BKN020,0.00,16.00,VWS V14.01,2013-06-27 10:15:00,
2013-06-27 06:19:00,59.7,58.6,29.81,East,93,4.0,5.0,96,0.00,,BKN036,0.00,21.00,VWS V14.01,2013-06-27 10:19:00,
2013-06-27 06:20:00,59.7,58.6,29.81,East,93,2.0,5.0,96,0.00,,BKN020,0.00,19.00,VWS V14.01,2013-06-27 10:20:00,
2013-06-27 06:25:00,59.6,58.5,29.81,East,92,5.0,6.0,96,0.00,,BKN036,0.00,23.00,VWS V14.01,2013-06-27 10:25:00,
2013-06-27 06:30:00,59.6,58.5,29.80,East,91,6.0,6.0,96,0.00,,BKN036,0.00,32.00,VWS V14.01,2013-06-27 10:30:00,
2013-06-27 06:35:00,59.6,58.5,29.81,East,90,5.0,6.0,96,0.00,,BKN036,0.00,53.00,VWS V14.01,2013-06-27 10:35:00,
2013-06-27 06:40:00,59.7,58.6,29.80,East,90,1.0,4.0,96,0.00,,BKN036,0.00,35.00,VWS V14.01,2013-06-27 10:40:00,
2013-06-27 06:45:00,59.8,58.7,29.81,East,90,2.0,2.0,96,0.00,,BKN036,0.00,23.00,VWS V14.01,2013-06-27 10:45:00,
2013-06-27 06:50:00,59.8,58.7,29.81,East,90,4.0,4.0,96,0.00,,BKN036,0.00,49.00,VWS V14.01,2013-06-27 10:50:00,
2013-06-27 06:55:00,59.8,58.7,29.81,East,90,1.0,4.0,96,0.00,,BKN036,0.00,37.00,VWS V14.01,2013-06-27 10:55:00,
2013-06-27 07:00:00,59.7,58.6,29.82,East,90,4.0,4.0,96,0.00,,BKN036,0.00,33.00,VWS V14.01,2013-06-27 11:00:00,
2013-06-27 07:05:00,59.7,58.6,29.82,East,90,1.0,4.0,96,0.00,,BKN036,0.00,47.00,VWS V14.01,2013-06-27 11:05:00,
2013-06-27 07:10:00,59.8,58.7,29.82,East,90,1.0,4.0,96,0.00,,BKN036,0.00,51.00,VWS V14.01,2013-06-27 11:10:00,
2013-06-27 07:15:00,59.9,58.8,29.81,East,90,1.0,4.0,96,0.00,,BKN036,0.00,60.00,VWS V14.01,2013-06-27 11:15:00,
2013-06-27 07:20:00,59.9,58.8,29.81,East,90,2.0,4.0,96,0.00,,BKN036,0.00,60.00,VWS V14.01,2013-06-27 11:20:00,
2013-06-27 07:25:00,59.9,58.8,29.81,East,90,2.0,5.0,96,0.00,,BKN036,0.00,65.00,VWS V14.01,2013-06-27 11:25:00,
2013-06-27 07:30:00,60.0,58.9,29.81,East,90,2.0,5.0,96,0.00,,BKN036,0.00,86.00,VWS V14.01,2013-06-27 11:30:00,
2013-06-27 07:35:00,60.0,58.9,29.80,East,89,1.0,5.0,96,0.00,,BKN020,0.00,86.00,VWS V14.01,2013-06-27 11:35:00,
2013-06-27 07:36:00,60.0,58.9,29.80,East,84,0.0,5.0,96,0.00,,BKN036,0.00,86.00,VWS V14.01,2013-06-27 11:36:00,
2013-06-27 07:40:00,60.1,59.0,29.81,East,84,2.0,5.0,96,0.00,,BKN020,0.00,88.00,VWS V14.01,2013-06-27 11:40:00,
2013-06-27 07:41:00,60.2,59.1,29.80,East,81,0.0,4.0,96,0.00,,BKN036,0.00,107.00,VWS V14.01,2013-06-27 11:41:00,
2013-06-27 07:45:00,60.2,59.1,29.80,East,82,2.0,4.0,96,0.00,,BKN020,0.00,107.00,VWS V14.01,2013-06-27 11:45:00,
2013-06-27 07:46:00,60.2,59.1,29.81,East,82,1.0,2.0,96,0.00,,BKN036,0.00,109.00,VWS V14.01,2013-06-27 11:46:00,
2013-06-27 07:50:00,60.3,59.2,29.81,East,81,2.0,3.0,96,0.00,,BKN020,0.00,111.00,VWS V14.01,2013-06-27 11:50:00,
2013-06-27 07:51:00,60.3,59.2,29.81,East,81,2.0,3.0,96,0.00,,BKN036,0.00,128.00,VWS V14.01,2013-06-27 11:51:00,
2013-06-27 07:55:00,60.4,59.3,29.81,East,82,3.0,4.0,96,0.00,,BKN020,0.00,141.00,VWS V14.01,2013-06-27 11:55:00,
2013-06-27 07:56:00,60.5,59.4,29.81,East,82,1.0,4.0,96,0.00,,BKN036,0.00,139.00,VWS V14.01,2013-06-27 11:56:00,
2013-06-27 08:00:00,60.5,59.4,29.81,East,81,0.0,4.0,96,0.00,,BKN020,0.00,120.00,VWS V14.01,2013-06-27 12:00:00,
2013-06-27 08:01:00,60.5,59.4,29.81,South,169,7.0,8.0,96,0.00,,BKN036,0.00,98.00,VWS V14.01,2013-06-27 12:01:00,
2013-06-27 08:05:00,60.6,59.5,29.81,SSE,168,1.0,8.0,96,0.00,,BKN020,0.00,97.00,VWS V14.01,2013-06-27 12:05:00,
2013-06-27 08:06:00,60.8,59.7,29.80,SSE,150,1.0,6.0,96,0.00,,BKN036,0.00,155.00,VWS V14.01,2013-06-27 12:06:00,
2013-06-27 08:10:00,60.9,59.8,29.80,SSE,150,1.0,6.0,96,0.00,,BKN020,0.00,149.00,VWS V14.01,2013-06-27 12:10:00,
2013-06-27 08:11:00,61.1,60.0,29.81,SSE,150,2.0,5.0,96,0.00,,BKN036,0.00,156.00,VWS V14.01,2013-06-27 12:11:00,
2013-06-27 08:15:00,61.1,60.0,29.81,SSE,150,5.0,5.0,96,0.00,,BKN020,0.00,162.00,VWS V14.01,2013-06-27 12:15:00,
2013-06-27 08:16:00,61.2,60.0,29.80,SE,144,5.0,5.0,96,0.00,,BKN036,0.00,193.00,VWS V14.01,2013-06-27 12:16:00,
2013-06-27 08:20:00,61.3,60.2,29.80,SE,143,2.0,6.0,96,0.00,,BKN020,0.00,207.00,VWS V14.01,2013-06-27 12:20:00,
2013-06-27 08:21:00,61.6,60.5,29.80,ESE,123,4.0,5.0,96,0.00,,BKN036,0.00,218.00,VWS V14.01,2013-06-27 12:21:00,
2013-06-27 08:25:00,61.6,60.5,29.80,ESE,122,2.0,5.0,96,0.00,,BKN020,0.00,223.00,VWS V14.01,2013-06-27 12:25:00,
2013-06-27 08:26:00,61.7,60.5,29.80,ESE,122,2.0,5.0,96,0.00,,BKN036,0.00,185.00,VWS V14.01,2013-06-27 12:26:00,
2013-06-27 08:30:00,61.8,60.7,29.80,ESE,122,4.0,5.0,96,0.00,,BKN020,0.00,172.00,VWS V14.01,2013-06-27 12:30:00,
2013-06-27 08:31:00,61.8,60.7,29.81,ESE,121,2.0,6.0,96,0.00,,BKN036,0.00,162.00,VWS V14.01,2013-06-27 12:31:00,
2013-06-27 08:35:00,61.8,60.7,29.81,ESE,121,0.0,6.0,96,0.00,,BKN020,0.00,149.00,VWS V14.01,2013-06-27 12:35:00,
2013-06-27 08:36:00,61.8,60.7,29.80,ESE,121,5.0,5.0,96,0.00,,BKN036,0.00,156.00,VWS V14.01,2013-06-27 12:36:00,
2013-06-27 08:40:00,61.8,60.7,29.80,ESE,120,5.0,5.0,96,0.00,,BKN020,0.00,163.00,VWS V14.01,2013-06-27 12:40:00,
2013-06-27 08:41:00,61.9,60.8,29.80,ESE,114,2.0,5.0,96,0.00,,BKN036,0.00,202.00,VWS V14.01,2013-06-27 12:41:00,
2013-06-27 08:45:00,62.0,60.8,29.80,ESE,114,4.0,5.0,96,0.00,,BKN020,0.00,200.00,VWS V14.01,2013-06-27 12:45:00,
2013-06-27 08:46:00,62.2,61.0,29.80,ESE,115,1.0,4.0,96,0.00,,BKN036,0.00,223.00,VWS V14.01,2013-06-27 12:46:00,
2013-06-27 08:50:00,62.2,61.0,29.80,ESE,114,0.0,4.0,96,0.00,,BKN020,0.00,232.00,VWS V14.01,2013-06-27 12:50:00,
2013-06-27 08:51:00,62.5,61.3,29.80,ESE,114,2.0,4.0,96,0.00,,BKN036,0.00,302.00,VWS V14.01,2013-06-27 12:51:00,
2013-06-27 08:55:00,62.5,61.3,29.80,ESE,113,4.0,5.0,96,0.00,,BKN020,0.00,297.00,VWS V14.01,2013-06-27 12:55:00,
2013-06-27 08:57:00,62.6,61.5,29.80,ESE,114,2.0,6.0,96,0.00,,BKN036,0.00,221.00,VWS V14.01,2013-06-27 12:57:00,
2013-06-27 09:00:00,62.6,61.5,29.80,ESE,114,2.0,6.0,96,0.00,,BKN020,0.00,241.00,VWS V14.01,2013-06-27 13:00:00,
2013-06-27 09:02:00,62.8,61.7,29.80,ESE,111,5.0,6.0,96,0.00,,BKN036,0.00,225.00,VWS V14.01,2013-06-27 13:02:00,
2013-06-27 09:05:00,62.8,61.7,29.80,ESE,112,4.0,6.0,96,0.00,,BKN020,0.00,221.00,VWS V14.01,2013-06-27 13:05:00,
2013-06-27 09:07:00,62.9,61.8,29.79,ESE,112,5.0,6.0,96,0.00,,BKN036,0.00,285.00,VWS V14.01,2013-06-27 13:07:00,
2013-06-27 09:10:00,62.9,61.8,29.79,ESE,112,4.0,6.0,96,0.00,,BKN020,0.00,315.00,VWS V14.01,2013-06-27 13:10:00,
2013-06-27 09:12:00,63.4,62.2,29.79,ESE,111,4.0,6.0,96,0.00,,BKN036,0.00,251.00,VWS V14.01,2013-06-27 13:12:00,
2013-06-27 09:15:00,63.5,62.0,29.79,ESE,110,4.0,6.0,95,0.00,,BKN020,0.00,251.00,VWS V14.01,2013-06-27 13:15:00,
2013-06-27 09:17:00,63.4,62.0,29.79,East,97,6.0,7.0,95,0.00,,BKN036,0.00,276.00,VWS V14.01,2013-06-27 13:17:00,
2013-06-27 09:20:00,63.4,62.0,29.79,East,96,5.0,7.0,95,0.00,,BKN020,0.00,276.00,VWS V14.01,2013-06-27 13:20:00,
2013-06-27 09:22:00,63.5,61.8,29.78,East,93,5.0,6.0,94,0.00,,BKN036,0.00,281.00,VWS V14.01,2013-06-27 13:22:00,
2013-06-27 09:25:00,63.6,61.8,29.78,East,93,6.0,6.0,94,0.00,,BKN020,0.00,281.00,VWS V14.01,2013-06-27 13:25:00,
2013-06-27 09:27:00,63.6,61.8,29.79,ESE,113,6.0,8.0,94,0.00,,BKN036,0.00,200.00,VWS V14.01,2013-06-27 13:27:00,
2013-06-27 09:30:00,63.6,61.8,29.79,ESE,114,7.0,8.0,94,0.00,,BKN020,0.00,200.00,VWS V14.01,2013-06-27 13:30:00,
2013-06-27 09:32:00,63.9,61.8,29.79,SE,135,4.0,8.0,93,0.00,,BKN036,0.00,206.00,VWS V14.01,2013-06-27 13:32:00,
2013-06-27 09:35:00,63.9,61.8,29.79,SE,136,5.0,8.0,93,0.00,,BKN020,0.00,206.00,VWS V14.01,2013-06-27 13:35:00,
2013-06-27 09:37:00,64.2,62.1,29.79,SE,136,2.0,7.0,93,0.00,,BKN036,0.00,200.00,VWS V14.01,2013-06-27 13:37:00,
2013-06-27 09:40:00,64.2,62.1,29.79,SE,136,2.0,7.0,93,0.00,,BKN020,0.00,200.00,VWS V14.01,2013-06-27 13:40:00,
2013-06-27 09:42:00,64.6,62.5,29.79,SE,136,5.0,7.0,93,0.00,,BKN036,0.00,220.00,VWS V14.01,2013-06-27 13:42:00,
2013-06-27 09:45:00,64.6,62.5,29.79,SE,136,5.0,7.0,93,0.00,,BKN020,0.00,220.00,VWS V14.01,2013-06-27 13:45:00,
2013-06-27 09:47:00,64.8,62.4,29.78,SE,130,6.0,6.0,92,0.00,,BKN036,0.00,257.00,VWS V14.01,2013-06-27 13:47:00,
2013-06-27 09:50:00,64.8,62.4,29.78,SE,130,4.0,8.0,92,0.00,,BKN020,0.00,253.00,VWS V14.01,2013-06-27 13:50:00,
2013-06-27 09:52:00,65.0,62.6,29.79,SSE,158,7.0,7.0,92,0.00,,BKN036,0.00,239.00,VWS V14.01,2013-06-27 13:52:00,
2013-06-27 09:55:00,65.0,62.6,29.79,SE,133,5.0,7.0,92,0.00,,BKN020,0.00,239.00,VWS V14.01,2013-06-27 13:55:00,
2013-06-27 09:57:00,65.1,62.4,29.79,ESE,104,5.0,5.0,91,0.00,,BKN036,0.00,214.00,VWS V14.01,2013-06-27 13:57:00,
2013-06-27 10:00:00,65.1,62.4,29.79,SSE,148,4.0,8.0,91,0.00,,BKN020,0.00,214.00,VWS V14.01,2013-06-27 14:00:00,
2013-06-27 10:03:00,65.3,62.6,29.79,SE,129,4.0,8.0,91,0.00,,BKN036,0.00,221.00,VWS V14.01,2013-06-27 14:03:00,
2013-06-27 10:05:00,65.3,62.6,29.79,SE,126,8.0,11.0,91,0.00,,BKN020,0.00,221.00,VWS V14.01,2013-06-27 14:05:00,
2013-06-27 10:08:00,65.2,62.5,29.79,SE,141,7.0,9.0,91,0.00,,BKN036,0.00,204.00,VWS V14.01,2013-06-27 14:08:00,
2013-06-27 10:10:00,65.2,62.5,29.79,SE,133,8.0,9.0,91,0.00,,BKN020,0.00,204.00,VWS V14.01,2013-06-27 14:10:00,
2013-06-27 10:13:00,65.2,62.5,29.79,SE,144,4.0,8.0,91,0.00,,BKN036,0.00,220.00,VWS V14.01,2013-06-27 14:13:00,
2013-06-27 10:15:00,65.2,62.5,29.79,SSE,148,7.0,10.0,91,0.00,,BKN020,0.00,220.00,VWS V14.01,2013-06-27 14:15:00,
2013-06-27 10:18:00,65.2,62.5,29.78,SSE,161,4.0,8.0,91,0.00,,BKN036,0.00,246.00,VWS V14.01,2013-06-27 14:18:00,
2013-06-27 10:20:00,65.2,62.5,29.79,SSE,163,7.0,10.0,91,0.00,,BKN020,0.00,246.00,VWS V14.01,2013-06-27 14:20:00,
2013-06-27 10:23:00,65.5,62.8,29.78,ESE,113,6.0,7.0,91,0.00,,BKN036,0.00,271.00,VWS V14.01,2013-06-27 14:23:00,
2013-06-27 10:25:00,65.5,62.8,29.78,ESE,111,6.0,8.0,91,0.00,,BKN020,0.00,272.00,VWS V14.01,2013-06-27 14:25:00,
2013-06-27 10:28:00,65.7,63.0,29.78,East,87,3.0,6.0,91,0.00,,BKN036,0.00,339.00,VWS V14.01,2013-06-27 14:28:00,
2013-06-27 10:30:00,65.6,62.9,29.78,ENE,70,6.0,8.0,91,0.00,,BKN020,0.00,316.00,VWS V14.01,2013-06-27 14:30:00,
2013-06-27 10:33:00,66.1,63.1,29.78,SSE,158,4.0,6.0,90,0.00,,BKN036,0.00,339.00,VWS V14.01,2013-06-27 14:33:00,
2013-06-27 10:35:00,66.1,63.1,29.78,ESE,120,4.0,10.0,90,0.00,,BKN020,0.00,366.00,VWS V14.01,2013-06-27 14:35:00,
2013-06-27 10:38:00,66.1,62.8,29.78,SSE,152,5.0,7.0,89,0.00,,BKN036,0.00,288.00,VWS V14.01,2013-06-27 14:38:00,
2013-06-27 10:40:00,66.1,62.8,29.78,SE,134,6.0,9.0,89,0.00,,BKN020,0.00,295.00,VWS V14.01,2013-06-27 14:40:00,
2013-06-27 10:43:00,66.2,62.9,29.78,SE,124,5.0,8.0,89,0.00,,BKN036,0.00,353.00,VWS V14.01,2013-06-27 14:43:00,
2013-06-27 10:45:00,66.2,62.9,29.78,ESE,109,7.0,11.0,89,0.00,,BKN020,0.00,338.00,VWS V14.01,2013-06-27 14:45:00,
2013-06-27 10:48:00,66.3,63.0,29.78,SE,132,5.0,8.0,89,0.00,,BKN036,0.00,403.00,VWS V14.01,2013-06-27 14:48:00,
2013-06-27 10:50:00,66.3,63.0,29.78,ESE,122,8.0,8.0,89,0.00,,BKN020,0.00,399.00,VWS V14.01,2013-06-27 14:50:00,
2013-06-27 10:53:00,66.5,63.2,29.79,ESE,121,5.0,6.0,89,0.00,,BKN036,0.00,297.00,VWS V14.01,2013-06-27 14:53:00,
2013-06-27 10:55:00,66.5,63.2,29.79,East,96,5.0,8.0,89,0.00,,BKN020,0.00,336.00,VWS V14.01,2013-06-27 14:55:00,
2013-06-27 10:58:00,66.4,62.7,29.78,SE,129,13.0,14.0,88,0.00,,BKN036,0.00,246.00,VWS V14.01,2013-06-27 14:58:00,
2013-06-27 11:00:00,66.4,62.7,29.78,East,92,5.0,14.0,88,0.00,,BKN020,0.00,246.00,VWS V14.01,2013-06-27 15:00:00,
2013-06-27 11:03:00,66.4,62.7,29.78,ESE,122,7.0,7.0,88,0.00,,BKN036,0.00,267.00,VWS V14.01,2013-06-27 15:03:00,
2013-06-27 11:05:00,66.3,62.6,29.78,SE,126,6.0,14.0,88,0.00,,BKN020,0.00,272.00,VWS V14.01,2013-06-27 15:05:00,
2013-06-27 11:08:00,66.3,62.6,29.79,SSE,150,6.0,7.0,88,0.00,,BKN036,0.00,288.00,VWS V14.01,2013-06-27 15:08:00,
2013-06-27 11:10:00,66.3,62.6,29.79,SE,142,2.0,8.0,88,0.00,,BKN020,0.00,276.00,VWS V14.01,2013-06-27 15:10:00,
2013-06-27 11:13:00,66.3,62.6,29.78,SE,144,7.0,10.0,88,0.00,,BKN036,0.00,434.00,VWS V14.01,2013-06-27 15:13:00,
2013-06-27 11:15:00,66.3,62.6,29.79,SE,136,10.0,10.0,88,0.00,,BKN020,0.00,438.00,VWS V14.01,2013-06-27 15:15:00,
2013-06-27 11:19:00,66.4,62.7,29.78,ESE,114,2.0,8.0,88,0.00,,BKN036,0.00,274.00,VWS V14.01,2013-06-27 15:19:00,
2013-06-27 11:20:00,66.5,62.8,29.78,ESE,112,7.0,10.0,88,0.00,,BKN020,0.00,294.00,VWS V14.01,2013-06-27 15:20:00,
2013-06-27 11:24:00,66.6,63.3,29.78,SE,127,2.0,5.0,89,0.00,,BKN036,0.00,287.00,VWS V14.01,2013-06-27 15:24:00,
2013-06-27 11:25:00,66.5,62.8,29.78,East,101,5.0,8.0,88,0.00,,BKN020,0.00,279.00,VWS V14.01,2013-06-27 15:25:00,
2013-06-27 11:29:00,66.9,63.2,29.78,ESE,107,2.0,6.0,88,0.00,,BKN036,0.00,355.00,VWS V14.01,2013-06-27 15:29:00,
2013-06-27 11:30:00,66.8,63.1,29.78,ESE,115,4.0,6.0,88,0.00,,BKN020,0.00,360.00,VWS V14.01,2013-06-27 15:30:00,
2013-06-27 11:34:00,67.0,63.3,29.78,ENE,77,5.0,8.0,88,0.00,,BKN036,0.00,408.00,VWS V14.01,2013-06-27 15:34:00,
2013-06-27 11:35:00,67.0,63.3,29.78,East,93,8.0,8.0,88,0.00,,BKN020,0.00,385.00,VWS V14.01,2013-06-27 15:35:00,
2013-06-27 11:39:00,67.0,63.3,29.78,ESE,102,4.0,7.0,88,0.00,,BKN036,0.00,385.00,VWS V14.01,2013-06-27 15:39:00,
2013-06-27 11:40:00,67.1,63.4,29.78,East,81,4.0,8.0,88,0.00,,BKN020,0.00,404.00,VWS V14.01,2013-06-27 15:40:00,
2013-06-27 11:44:00,67.2,63.5,29.77,ENE,60,6.0,8.0,88,0.00,,BKN036,0.00,345.00,VWS V14.01,2013-06-27 15:44:00,
2013-06-27 11:45:00,67.2,63.5,29.77,East,96,7.0,7.0,88,0.00,,BKN020,0.00,360.00,VWS V14.01,2013-06-27 15:45:00,
2013-06-27 11:49:00,67.4,63.7,29.77,ESE,109,6.0,7.0,88,0.00,,BKN036,0.00,397.00,VWS V14.01,2013-06-27 15:49:00,
2013-06-27 11:50:00,67.4,63.7,29.77,East,84,2.0,8.0,88,0.00,,BKN020,0.00,369.00,VWS V14.01,2013-06-27 15:50:00,
2013-06-27 11:54:00,67.4,63.4,29.77,SE,143,5.0,7.0,87,0.00,,BKN036,0.00,357.00,VWS V14.01,2013-06-27 15:54:00,
2013-06-27 11:55:00,67.3,63.6,29.77,SE,128,6.0,7.0,88,0.00,,BKN020,0.00,390.00,VWS V14.01,2013-06-27 15:55:00,
2013-06-27 11:59:00,67.6,63.6,29.77,SSE,148,6.0,8.0,87,0.00,,BKN036,0.00,318.00,VWS V14.01,2013-06-27 15:59:00,
2013-06-27 12:00:00,67.5,63.8,29.78,South,177,6.0,7.0,88,0.00,,BKN020,0.00,418.00,VWS V14.01,2013-06-27 16:00:00,
2013-06-27 12:04:00,67.7,63.7,29.77,ESE,111,2.0,5.0,87,0.00,,BKN036,0.00,316.00,VWS V14.01,2013-06-27 16:04:00,
2013-06-27 12:05:00,67.7,63.7,29.77,ESE,111,2.0,8.0,87,0.00,,BKN020,0.00,274.00,VWS V14.01,2013-06-27 16:05:00,
2013-06-27 12:09:00,68.0,64.0,29.77,South,170,1.0,4.0,87,0.00,,BKN036,0.00,475.00,VWS V14.01,2013-06-27 16:09:00,
2013-06-27 12:10:00,67.8,63.8,29.77,South,171,0.0,6.0,87,0.00,,BKN020,0.00,415.00,VWS V14.01,2013-06-27 16:10:00,
2013-06-27 12:14:00,68.5,64.2,29.77,SSE,163,6.0,6.0,86,0.00,,BKN036,0.00,722.00,VWS V14.01,2013-06-27 16:14:00,
2013-06-27 12:15:00,68.3,64.3,29.77,SSE,155,2.0,5.0,87,0.00,,BKN020,0.00,548.00,VWS V14.01,2013-06-27 16:15:00,
2013-06-27 12:19:00,69.0,64.6,29.77,South,182,0.0,5.0,86,0.00,,BKN036,0.00,635.00,VWS V14.01,2013-06-27 16:19:00,
2013-06-27 12:20:00,68.8,64.4,29.77,South,182,1.0,6.0,86,0.00,,BKN020,0.00,585.00,VWS V14.01,2013-06-27 16:20:00,
2013-06-27 12:25:00,69.6,64.9,29.77,ESE,115,2.0,5.0,85,0.00,,BKN036,0.00,376.00,VWS V14.01,2013-06-27 16:25:00,
2013-06-27 12:30:00,69.5,64.5,29.77,ESE,115,1.0,6.0,84,0.00,,BKN036,0.00,323.00,VWS V14.01,2013-06-27 16:30:00,
2013-06-27 12:35:00,69.4,64.7,29.77,ENE,76,5.0,5.0,85,0.00,,BKN036,0.00,322.00,VWS V14.01,2013-06-27 16:35:00,
2013-06-27 12:40:00,69.5,64.5,29.76,ESE,114,5.0,7.0,84,0.00,,BKN036,0.00,292.00,VWS V14.01,2013-06-27 16:40:00,
2013-06-27 12:45:00,69.4,64.7,29.76,ESE,104,5.0,6.0,85,0.00,,BKN036,0.00,341.00,VWS V14.01,2013-06-27 16:45:00,
2013-06-27 12:50:00,69.4,64.7,29.76,ESE,115,1.0,6.0,85,0.00,,BKN036,0.00,285.00,VWS V14.01,2013-06-27 16:50:00,
2013-06-27 12:55:00,69.4,64.7,29.76,SE,128,5.0,8.0,85,0.00,,BKN036,0.00,276.00,VWS V14.01,2013-06-27 16:55:00,
2013-06-27 13:00:00,69.3,64.6,29.76,ESE,106,4.0,7.0,85,0.00,,BKN036,0.00,253.00,VWS V14.01,2013-06-27 17:00:00,
2013-06-27 13:05:00,69.3,64.9,29.76,ESE,109,5.0,8.0,86,0.00,,BKN036,0.00,322.00,VWS V14.01,2013-06-27 17:05:00,
2013-06-27 13:10:00,69.5,65.1,29.76,SE,140,6.0,8.0,86,0.00,,BKN036,0.00,325.00,VWS V14.01,2013-06-27 17:10:00,
2013-06-27 13:15:00,69.5,64.8,29.76,South,172,1.0,6.0,85,0.00,,BKN036,0.00,262.00,VWS V14.01,2013-06-27 17:15:00,
2013-06-27 13:20:00,69.5,65.1,29.76,ESE,103,6.0,7.0,86,0.00,,BKN020,0.00,258.00,VWS V14.01,2013-06-27 17:20:00,
2013-06-27 13:21:00,69.5,65.1,29.76,East,80,5.0,6.0,86,0.00,,BKN036,0.00,241.00,VWS V14.01,2013-06-27 17:21:00,
2013-06-27 13:25:00,69.5,65.1,29.76,East,89,5.0,6.0,86,0.00,,BKN020,0.00,262.00,VWS V14.01,2013-06-27 17:25:00,
2013-06-27 13:26:00,69.4,65.0,29.75,East,98,5.0,7.0,86,0.00,,BKN036,0.00,294.00,VWS V14.01,2013-06-27 17:26:00,
2013-06-27 13:30:00,69.4,65.0,29.75,East,94,4.0,7.0,86,0.00,,BKN020,0.00,318.00,VWS V14.01,2013-06-27 17:30:00,
2013-06-27 13:31:00,69.6,65.2,29.75,ENE,77,4.0,6.0,86,0.00,,BKN036,0.00,489.00,VWS V14.01,2013-06-27 17:31:00,
2013-06-27 13:35:00,69.8,65.8,29.75,ESE,108,4.0,6.0,87,0.00,,BKN020,0.00,492.00,VWS V14.01,2013-06-27 17:35:00,
2013-06-27 13:36:00,69.9,65.2,29.75,ESE,122,5.0,8.0,85,0.00,,BKN036,0.00,432.00,VWS V14.01,2013-06-27 17:36:00,
2013-06-27 13:40:00,69.9,65.2,29.75,ESE,105,4.0,8.0,85,0.00,,BKN020,0.00,376.00,VWS V14.01,2013-06-27 17:40:00,
2013-06-27 13:41:00,70.0,65.3,29.75,SE,141,1.0,6.0,85,0.00,,BKN036,0.00,403.00,VWS V14.01,2013-06-27 17:41:00,
2013-06-27 13:45:00,70.1,65.4,29.75,ESE,103,7.0,7.0,85,0.00,,BKN020,0.00,522.00,VWS V14.01,2013-06-27 17:45:00,
2013-06-27 13:46:00,70.3,65.6,29.75,ESE,114,6.0,8.0,85,0.00,,BKN036,0.00,420.00,VWS V14.01,2013-06-27 17:46:00,
2013-06-27 13:50:00,70.3,65.6,29.75,ESE,103,7.0,8.0,85,0.00,,BKN020,0.00,406.00,VWS V14.01,2013-06-27 17:50:00,
2013-06-27 13:51:00,70.4,65.7,29.75,ESE,111,5.0,11.0,85,0.00,,BKN036,0.00,410.00,VWS V14.01,2013-06-27 17:51:00,
2013-06-27 13:55:00,70.5,65.8,29.75,ESE,102,6.0,11.0,85,0.00,,BKN020,0.00,422.00,VWS V14.01,2013-06-27 17:55:00,
2013-06-27 13:56:00,70.6,65.9,29.75,East,89,5.0,9.0,85,0.00,,BKN036,0.00,473.00,VWS V14.01,2013-06-27 17:56:00,
2013-06-27 14:00:00,70.6,65.9,29.75,ENE,77,4.0,9.0,85,0.00,,BKN020,0.00,436.00,VWS V14.01,2013-06-27 18:00:00,
2013-06-27 14:01:00,70.9,66.2,29.74,ESE,105,9.0,12.0,85,0.00,,BKN036,0.00,605.00,VWS V14.01,2013-06-27 18:01:00,
2013-06-27 14:05:00,71.0,66.3,29.75,ESE,104,7.0,12.0,85,0.00,,BKN020,0.00,592.00,VWS V14.01,2013-06-27 18:05:00,
2013-06-27 14:06:00,71.0,65.9,29.75,East,87,7.0,8.0,84,0.00,,BKN036,0.00,404.00,VWS V14.01,2013-06-27 18:06:00,
2013-06-27 14:10:00,71.0,66.3,29.75,East,92,6.0,10.0,85,0.00,,BKN020,0.00,432.00,VWS V14.01,2013-06-27 18:10:00,
2013-06-27 14:11:00,71.2,66.5,29.75,ESE,121,1.0,7.0,85,0.00,,BKN036,0.00,339.00,VWS V14.01,2013-06-27 18:11:00,
2013-06-27 14:15:00,71.3,66.6,29.75,ESE,109,7.0,9.0,85,0.00,,BKN020,0.00,329.00,VWS V14.01,2013-06-27 18:15:00,
2013-06-27 14:16:00,71.2,66.1,29.75,East,90,6.0,9.0,84,0.00,,BKN036,0.00,246.00,VWS V14.01,2013-06-27 18:16:00,
2013-06-27 14:20:00,71.2,66.5,29.75,ESE,103,6.0,9.0,85,0.00,,BKN020,0.00,253.00,VWS V14.01,2013-06-27 18:20:00,
2013-06-27 14:21:00,71.1,66.0,29.75,East,90,6.0,7.0,84,0.00,,BKN036,0.00,332.00,VWS V14.01,2013-06-27 18:21:00,
2013-06-27 14:25:00,71.1,66.0,29.75,East,97,4.0,7.0,84,0.00,,BKN020,0.00,329.00,VWS V14.01,2013-06-27 18:25:00,
2013-06-27 14:26:00,71.2,66.1,29.75,ESE,107,5.0,7.0,84,0.00,,BKN036,0.00,209.00,VWS V14.01,2013-06-27 18:26:00,
2013-06-27 14:30:00,71.3,66.2,29.75,ESE,109,6.0,7.0,84,0.00,,BKN020,0.00,200.00,VWS V14.01,2013-06-27 18:30:00,
2013-06-27 14:31:00,71.2,65.8,29.75,East,84,5.0,7.0,83,0.00,,BKN036,0.00,186.00,VWS V14.01,2013-06-27 18:31:00,
2013-06-27 14:35:00,71.2,65.8,29.75,East,86,5.0,7.0,83,0.00,,BKN020,0.00,181.00,VWS V14.01,2013-06-27 18:35:00,
2013-06-27 14:37:00,71.0,65.9,29.75,ENE,57,5.0,8.0,84,0.00,,BKN036,0.00,172.00,VWS V14.01,2013-06-27 18:37:00,
2013-06-27 14:40:00,71.0,65.9,29.75,NE,49,6.0,8.0,84,0.00,,BKN020,0.00,174.00,VWS V14.01,2013-06-27 18:40:00,
2013-06-27 14:42:00,70.6,65.5,29.75,NE,43,5.0,8.0,84,0.00,,BKN036,0.00,163.00,VWS V14.01,2013-06-27 18:42:00,
2013-06-27 14:45:00,70.6,65.5,29.75,ENE,63,4.0,8.0,84,0.00,,BKN020,0.00,151.00,VWS V14.01,2013-06-27 18:45:00,
2013-06-27 14:47:00,70.4,65.7,29.75,NE,47,3.0,6.0,85,0.00,,BKN036,0.00,97.00,VWS V14.01,2013-06-27 18:47:00,
2013-06-27 14:50:00,70.4,65.7,29.75,NE,40,3.0,6.0,85,0.00,,BKN020,0.00,91.00,VWS V14.01,2013-06-27 18:50:00,
2013-06-27 14:52:00,70.3,65.6,29.75,East,100,4.0,7.0,85,0.00,,BKN036,0.00,72.00,VWS V14.01,2013-06-27 18:52:00,
2013-06-27 14:55:00,70.2,65.5,29.75,East,100,5.0,7.0,85,0.00,,BKN020,0.00,72.00,VWS V14.01,2013-06-27 18:55:00,
2013-06-27 14:57:00,70.1,65.7,29.75,East,80,4.0,7.0,86,0.00,,BKN036,0.00,84.00,VWS V14.01,2013-06-27 18:57:00,
2013-06-27 15:00:00,70.0,65.3,29.75,ENE,75,4.0,7.0,85,0.00,,BKN020,0.00,84.00,VWS V14.01,2013-06-27 19:00:00,
2013-06-27 15:02:00,69.8,65.4,29.75,East,81,3.0,8.0,86,0.00,,BKN036,0.00,90.00,VWS V14.01,2013-06-27 19:02:00,
2013-06-27 15:05:00,69.8,65.4,29.75,East,82,4.0,8.0,86,0.00,,BKN020,0.00,90.00,VWS V14.01,2013-06-27 19:05:00,
2013-06-27 15:07:00,69.6,65.2,29.75,East,79,4.0,6.0,86,0.00,,BKN036,0.00,90.00,VWS V14.01,2013-06-27 19:07:00,
2013-06-27 15:10:00,69.6,65.2,29.75,ENE,78,4.0,6.0,86,0.00,,BKN020,0.00,90.00,VWS V14.01,2013-06-27 19:10:00,
2013-06-27 15:12:00,69.4,65.4,29.75,ENE,78,5.0,6.0,87,0.00,,BKN036,0.00,98.00,VWS V14.01,2013-06-27 19:12:00,
2013-06-27 15:15:00,69.4,65.4,29.75,East,79,6.0,6.0,87,0.00,,BKN020,0.00,98.00,VWS V14.01,2013-06-27 19:15:00,
2013-06-27 15:17:00,69.2,65.5,29.75,East,86,3.0,6.0,88,0.00,,BKN036,0.00,132.00,VWS V14.01,2013-06-27 19:17:00,
2013-06-27 15:20:00,69.2,65.5,29.75,East,86,3.0,6.0,88,0.00,,BKN020,0.00,132.00,VWS V14.01,2013-06-27 19:20:00,
2013-06-27 15:22:00,69.1,65.7,29.75,East,86,3.0,4.0,89,0.00,,BKN036,0.00,202.00,VWS V14.01,2013-06-27 19:22:00,
2013-06-27 15:25:00,69.1,65.7,29.75,East,86,3.0,4.0,89,0.00,,BKN020,0.00,202.00,VWS V14.01,2013-06-27 19:25:00,
2013-06-27 15:27:00,69.2,66.2,29.75,East,86,2.0,4.0,90,0.00,,BKN036,0.00,250.00,VWS V14.01,2013-06-27 19:27:00,
2013-06-27 15:30:00,69.2,66.2,29.75,East,86,2.0,4.0,90,0.00,,BKN020,0.00,250.00,VWS V14.01,2013-06-27 19:30:00,
2013-06-27 15:32:00,69.0,65.9,29.75,ENE,74,3.0,5.0,90,0.00,,BKN036,0.00,102.00,VWS V14.01,2013-06-27 19:32:00,
2013-06-27 15:35:00,69.1,66.1,29.75,ENE,74,5.0,6.0,90,0.00,,BKN020,0.00,121.00,VWS V14.01,2013-06-27 19:35:00,
2013-06-27 15:38:00,68.5,65.5,29.75,ENE,66,3.0,4.0,90,0.00,,BKN036,0.00,65.00,VWS V14.01,2013-06-27 19:38:00,
2013-06-27 15:40:00,68.6,65.6,29.75,ENE,61,4.0,7.0,90,0.00,,BKN020,0.00,65.00,VWS V14.01,2013-06-27 19:40:00,
2013-06-27 15:43:00,67.7,64.7,29.75,East,90,9.0,10.0,90,0.00,,BKN036,0.00,51.00,VWS V14.01,2013-06-27 19:43:00,
2013-06-27 15:45:00,67.8,64.8,29.75,East,84,7.0,10.0,90,0.00,,BKN020,0.00,56.00,VWS V14.01,2013-06-27 19:45:00,
2013-06-27 15:48:00,67.2,64.5,29.75,ENE,78,4.0,6.0,91,0.00,,BKN036,0.00,46.00,VWS V14.01,2013-06-27 19:48:00,
2013-06-27 15:50:00,67.2,64.5,29.75,East,79,5.0,10.0,91,0.00,,BKN020,0.00,46.00,VWS V14.01,2013-06-27 19:50:00,
2013-06-27 15:53:00,66.6,63.9,29.74,ENE,64,7.0,10.0,91,0.00,,BKN036,0.00,42.00,VWS V14.01,2013-06-27 19:53:00,
2013-06-27 15:55:00,66.7,64.0,29.75,East,82,8.0,10.0,91,0.00,,BKN020,0.00,42.00,VWS V14.01,2013-06-27 19:55:00,
2013-06-27 15:58:00,66.1,63.7,29.74,East,82,8.0,8.0,92,0.00,,BKN036,0.00,60.00,VWS V14.01,2013-06-27 19:58:00,
2013-06-27 16:00:00,66.1,63.7,29.74,ENE,67,6.0,10.0,92,0.00,,BKN020,0.00,60.00,VWS V14.01,2013-06-27 20:00:00,
2013-06-27 16:03:00,65.8,63.4,29.74,East,92,7.0,8.0,92,0.00,,BKN036,0.00,83.00,VWS V14.01,2013-06-27 20:03:00,
2013-06-27 16:05:00,65.8,63.4,29.74,East,85,7.0,11.0,92,0.00,,BKN020,0.00,83.00,VWS V14.01,2013-06-27 20:05:00,
2013-06-27 16:08:00,65.8,63.7,29.74,ENE,63,6.0,6.0,93,0.00,,BKN036,0.00,79.00,VWS V14.01,2013-06-27 20:08:00,
2013-06-27 16:10:00,65.7,63.6,29.74,East,96,4.0,8.0,93,0.00,,BKN020,0.00,86.00,VWS V14.01,2013-06-27 20:10:00,
2013-06-27 16:13:00,65.0,62.6,29.75,ENE,75,6.0,7.0,92,0.00,,BKN036,0.00,65.00,VWS V14.01,2013-06-27 20:13:00,
2013-06-27 16:15:00,65.1,62.7,29.75,ENE,65,6.0,11.0,92,0.00,,BKN020,0.00,70.00,VWS V14.01,2013-06-27 20:15:00,
2013-06-27 16:18:00,64.6,62.5,29.74,East,79,6.0,11.0,93,0.00,,BKN036,0.00,65.00,VWS V14.01,2013-06-27 20:18:00,
2013-06-27 16:20:00,64.7,62.6,29.74,East,90,9.0,10.0,93,0.00,,BKN020,0.00,60.00,VWS V14.01,2013-06-27 20:20:00,
2013-06-27 16:23:00,64.3,62.2,29.74,East,82,5.0,7.0,93,0.00,,BKN036,0.00,79.00,VWS V14.01,2013-06-27 20:23:00,
2013-06-27 16:25:00,64.3,62.2,29.75,NE,52,4.0,11.0,93,0.00,,BKN020,0.00,79.00,VWS V14.01,2013-06-27 20:25:00,
2013-06-27 16:28:00,64.3,62.5,29.74,ENE,70,10.0,10.0,94,0.00,,BKN036,0.00,74.00,VWS V14.01,2013-06-27 20:28:00,
2013-06-27 16:30:00,64.3,62.5,29.74,ENE,71,4.0,9.0,94,0.00,,BKN020,0.00,72.00,VWS V14.01,2013-06-27 20:30:00,
2013-06-27 16:33:00,64.2,62.4,29.74,ENE,78,6.0,8.0,94,0.00,,BKN036,0.00,46.00,VWS V14.01,2013-06-27 20:33:00,
2013-06-27 16:35:00,64.2,62.4,29.74,ENE,68,3.0,10.0,94,0.00,,BKN020,0.00,49.00,VWS V14.01,2013-06-27 20:35:00,
2013-06-27 16:39:00,64.1,62.3,29.74,ENE,60,5.0,6.0,94,0.00,,BKN036,0.00,33.00,VWS V14.01,2013-06-27 20:39:00,
2013-06-27 16:40:00,64.2,62.4,29.74,ENE,68,4.0,8.0,94,0.00,,BKN020,0.00,33.00,VWS V14.01,2013-06-27 20:40:00,
2013-06-27 16:44:00,64.0,62.2,29.74,East,82,6.0,6.0,94,0.00,,BKN036,0.00,23.00,VWS V14.01,2013-06-27 20:44:00,
2013-06-27 16:45:00,64.0,62.2,29.74,ENE,68,5.0,7.0,94,0.00,,BKN020,0.00,28.00,VWS V14.01,2013-06-27 20:45:00,
2013-06-27 16:50:00,63.7,62.0,29.74,ENE,57,5.0,7.0,94,0.00,,BKN036,0.00,19.00,VWS V14.01,2013-06-27 20:50:00,
2013-06-27 16:55:00,63.7,62.0,29.74,East,88,3.0,5.0,94,0.00,,BKN036,0.00,16.00,VWS V14.01,2013-06-27 20:55:00,
2013-06-27 17:00:00,63.7,62.0,29.74,ENE,66,4.0,5.0,94,0.00,,BKN020,0.00,14.00,VWS V14.01,2013-06-27 21:00:00,
2013-06-27 17:01:00,63.6,61.8,29.74,East,85,6.0,8.0,94,0.00,,BKN036,0.00,19.00,VWS V14.01,2013-06-27 21:01:00,
2013-06-27 17:05:00,63.6,61.8,29.74,East,101,5.0,8.0,94,0.00,,BKN020,0.00,19.00,VWS V14.01,2013-06-27 21:05:00,
2013-06-27 17:06:00,63.5,61.8,29.74,East,86,7.0,11.0,94,0.00,,BKN036,0.00,35.00,VWS V14.01,2013-06-27 21:06:00,
2013-06-27 17:10:00,63.5,61.8,29.74,East,100,7.0,11.0,94,0.00,,BKN020,0.00,40.00,VWS V14.01,2013-06-27 21:10:00,
2013-06-27 17:11:00,63.6,61.8,29.74,East,92,7.0,9.0,94,0.00,,BKN036,0.00,90.00,VWS V14.01,2013-06-27 21:11:00,
2013-06-27 17:15:00,63.6,61.8,29.74,East,88,5.0,9.0,94,0.00,,BKN020,0.00,93.00,VWS V14.01,2013-06-27 21:15:00,
2013-06-27 17:16:00,63.6,61.8,29.74,ENE,63,3.0,7.0,94,0.00,,BKN036,0.00,107.00,VWS V14.01,2013-06-27 21:16:00,
2013-06-27 17:20:00,63.6,61.8,29.74,ESE,105,4.0,7.0,94,0.00,,BKN020,0.00,114.00,VWS V14.01,2013-06-27 21:20:00,
2013-06-27 17:21:00,63.6,61.8,29.74,East,88,3.0,6.0,94,0.00,,BKN036,0.00,97.00,VWS V14.01,2013-06-27 21:21:00,
2013-06-27 17:25:00,63.6,61.8,29.74,East,89,3.0,6.0,94,0.00,,BKN020,0.00,91.00,VWS V14.01,2013-06-27 21:25:00,
2013-06-27 17:26:00,63.8,62.0,29.74,East,91,5.0,7.0,94,0.00,,BKN036,0.00,79.00,VWS V14.01,2013-06-27 21:26:00,
2013-06-27 17:30:00,63.8,62.0,29.74,East,100,7.0,7.0,94,0.00,,BKN020,0.00,76.00,VWS V14.01,2013-06-27 21:30:00,
2013-06-27 17:31:00,63.9,62.1,29.74,East,91,4.0,7.0,94,0.00,,BKN036,0.00,58.00,VWS V14.01,2013-06-27 21:31:00,
2013-06-27 17:35:00,63.8,62.0,29.74,ESE,102,4.0,7.0,94,0.00,,BKN020,0.00,53.00,VWS V14.01,2013-06-27 21:35:00,
2013-06-27 17:37:00,63.7,62.0,29.74,East,91,5.0,8.0,94,0.00,,BKN036,0.00,42.00,VWS V14.01,2013-06-27 21:37:00,
2013-06-27 17:40:00,63.7,62.0,29.74,East,93,6.0,8.0,94,0.00,,BKN020,0.00,40.00,VWS V14.01,2013-06-27 21:40:00,
2013-06-27 17:42:00,63.8,62.0,29.74,East,90,7.0,7.0,94,0.00,,BKN036,0.00,46.00,VWS V14.01,2013-06-27 21:42:00,
2013-06-27 17:45:00,63.8,62.0,29.74,ENE,63,4.0,7.0,94,0.00,,BKN020,0.00,46.00,VWS V14.01,2013-06-27 21:45:00,
2013-06-27 17:47:00,63.7,62.0,29.74,ENE,77,5.0,8.0,94,0.00,,BKN036,0.00,32.00,VWS V14.01,2013-06-27 21:47:00,
2013-06-27 17:50:00,63.6,61.8,29.74,ENE,78,4.0,8.0,94,0.00,,BKN020,0.00,32.00,VWS V14.01,2013-06-27 21:50:00,
2013-06-27 17:52:00,63.5,61.8,29.74,East,92,5.0,10.0,94,0.00,,BKN036,0.00,26.00,VWS V14.01,2013-06-27 21:52:00,
2013-06-27 17:55:00,63.5,61.8,29.74,East,92,5.0,10.0,94,0.00,,BKN020,0.00,26.00,VWS V14.01,2013-06-27 21:55:00,
2013-06-27 17:57:00,63.5,61.8,29.74,East,87,1.0,5.0,94,0.00,,BKN036,0.00,40.00,VWS V14.01,2013-06-27 21:57:00,
2013-06-27 18:00:00,63.5,61.8,29.74,East,87,1.0,5.0,94,0.00,,BKN020,0.00,40.00,VWS V14.01,2013-06-27 22:00:00,
2013-06-27 18:02:00,63.6,61.8,29.74,East,82,3.0,7.0,94,0.00,,BKN036,0.00,51.00,VWS V14.01,2013-06-27 22:02:00,
2013-06-27 18:05:00,63.6,61.8,29.74,East,82,3.0,7.0,94,0.00,,BKN020,0.00,51.00,VWS V14.01,2013-06-27 22:05:00,
2013-06-27 18:08:00,63.6,61.8,29.74,East,84,4.0,5.0,94,0.00,,BKN036,0.00,44.00,VWS V14.01,2013-06-27 22:08:00,
2013-06-27 18:10:00,63.6,61.8,29.74,East,84,3.0,4.0,94,0.00,,BKN020,0.00,40.00,VWS V14.01,2013-06-27 22:10:00,
2013-06-27 18:13:00,63.6,61.8,29.74,ENE,63,3.0,3.0,94,0.00,,BKN036,0.00,49.00,VWS V14.01,2013-06-27 22:13:00,
2013-06-27 18:15:00,63.6,61.8,29.74,ENE,63,2.0,5.0,94,0.00,,BKN020,0.00,49.00,VWS V14.01,2013-06-27 22:15:00,
2013-06-27 18:18:00,63.5,61.8,29.74,East,80,5.0,6.0,94,0.00,,BKN036,0.00,35.00,VWS V14.01,2013-06-27 22:18:00,
2013-06-27 18:20:00,63.5,61.8,29.73,ENE,78,6.0,7.0,94,0.00,,BKN020,0.00,42.00,VWS V14.01,2013-06-27 22:20:00,
2013-06-27 18:23:00,63.4,61.7,29.74,ESE,103,7.0,7.0,94,0.00,,BKN036,0.00,32.00,VWS V14.01,2013-06-27 22:23:00,
2013-06-27 18:25:00,63.5,61.8,29.74,ENE,63,4.0,6.0,94,0.00,,BKN020,0.00,30.00,VWS V14.01,2013-06-27 22:25:00,
2013-06-27 18:28:00,63.5,61.8,29.74,East,95,4.0,6.0,94,0.00,,BKN036,0.00,19.00,VWS V14.01,2013-06-27 22:28:00,
2013-06-27 18:30:00,63.4,61.7,29.74,East,93,5.0,8.0,94,0.00,,BKN020,0.00,28.00,VWS V14.01,2013-06-27 22:30:00,
2013-06-27 18:34:00,63.5,61.8,29.74,East,89,2.0,5.0,94,0.00,,BKN036,0.00,25.00,VWS V14.01,2013-06-27 22:34:00,
2013-06-27 18:35:00,63.5,61.8,29.74,ESE,103,5.0,7.0,94,0.00,,BKN020,0.00,19.00,VWS V14.01,2013-06-27 22:35:00,
2013-06-27 18:39:00,63.5,61.8,29.74,East,80,4.0,6.0,94,0.00,,BKN036,0.00,28.00,VWS V14.01,2013-06-27 22:39:00,
2013-06-27 18:40:00,63.6,62.2,29.74,ENE,74,5.0,5.0,95,0.00,,BKN020,0.00,30.00,VWS V14.01,2013-06-27 22:40:00,
2013-06-27 18:44:00,63.5,62.0,29.74,East,86,3.0,4.0,95,0.00,,BKN036,0.00,21.00,VWS V14.01,2013-06-27 22:44:00,
2013-06-27 18:45:00,63.5,61.8,29.74,East,84,2.0,6.0,94,0.00,,BKN020,0.00,25.00,VWS V14.01,2013-06-27 22:45:00,
2013-06-27 18:49:00,63.5,62.0,29.74,East,85,2.0,3.0,95,0.00,,BKN036,0.00,21.00,VWS V14.01,2013-06-27 22:49:00,
2013-06-27 18:50:00,63.5,62.0,29.74,East,85,2.0,4.0,95,0.00,,BKN020,0.00,21.00,VWS V14.01,2013-06-27 22:50:00,
2013-06-27 18:55:00,63.6,62.2,29.74,ESE,102,1.0,5.0,95,0.00,,BKN036,0.00,19.00,VWS V14.01,2013-06-27 22:55:00,
2013-06-27 19:00:00,63.6,62.2,29.73,East,101,4.0,5.0,95,0.00,,BKN036,0.00,12.00,VWS V14.01,2013-06-27 23:00:00,
2013-06-27 19:05:00,63.6,62.2,29.73,ESE,117,5.0,6.0,95,0.00,,BKN036,0.00,16.00,VWS V14.01,2013-06-27 23:05:00,
2013-06-27 19:10:00,63.6,62.2,29.73,ESE,117,1.0,6.0,95,0.00,,BKN020,0.00,14.00,VWS V14.01,2013-06-27 23:10:00,
2013-06-27 19:11:00,63.6,62.2,29.73,ESE,117,4.0,4.0,95,0.00,,BKN036,0.00,14.00,VWS V14.01,2013-06-27 23:11:00,
2013-06-27 19:15:00,63.6,62.2,29.73,ESE,117,6.0,6.0,95,0.00,,BKN020,0.00,12.00,VWS V14.01,2013-06-27 23:15:00,
2013-06-27 19:16:00,63.6,62.2,29.73,East,101,4.0,6.0,95,0.00,,BKN036,0.00,7.00,VWS V14.01,2013-06-27 23:16:00,
2013-06-27 19:20:00,63.6,62.2,29.73,East,101,4.0,6.0,95,0.00,,BKN020,0.00,7.00,VWS V14.01,2013-06-27 23:20:00,
2013-06-27 19:21:00,63.6,62.2,29.73,East,96,5.0,7.0,95,0.00,,BKN036,0.00,5.00,VWS V14.01,2013-06-27 23:21:00,
2013-06-27 19:25:00,63.6,62.2,29.73,ESE,106,5.0,7.0,95,0.00,,BKN020,0.00,5.00,VWS V14.01,2013-06-27 23:25:00,
2013-06-27 19:27:00,63.7,62.2,29.73,ESE,106,2.0,5.0,95,0.00,,BKN036,0.00,5.00,VWS V14.01,2013-06-27 23:27:00,
2013-06-27 19:30:00,63.7,62.2,29.73,ESE,106,4.0,5.0,95,0.00,,BKN020,0.00,5.00,VWS V14.01,2013-06-27 23:30:00,
2013-06-27 19:32:00,63.7,62.2,29.73,East,101,7.0,7.0,95,0.00,,BKN036,0.00,7.00,VWS V14.01,2013-06-27 23:32:00,
2013-06-27 19:35:00,63.6,62.2,29.73,ESE,120,8.0,8.0,95,0.00,,BKN020,0.00,7.00,VWS V14.01,2013-06-27 23:35:00,
2013-06-27 19:37:00,63.6,62.2,29.73,SE,132,4.0,9.0,95,0.00,,BKN036,0.00,0.00,VWS V14.01,2013-06-27 23:37:00,
2013-06-27 19:40:00,63.6,62.2,29.73,SE,132,4.0,9.0,95,0.00,,BKN020,0.00,0.00,VWS V14.01,2013-06-27 23:40:00,
2013-06-27 19:42:00,63.6,62.2,29.73,ESE,120,6.0,8.0,95,0.00,,BKN036,0.00,0.00,VWS V14.01,2013-06-27 23:42:00,
2013-06-27 19:45:00,63.6,62.2,29.73,ESE,120,6.0,8.0,95,0.00,,BKN020,0.00,0.00,VWS V14.01,2013-06-27 23:45:00,
2013-06-27 19:47:00,63.5,62.0,29.73,SE,126,6.0,6.0,95,0.00,,BKN036,0.00,0.00,VWS V14.01,2013-06-27 23:47:00,
2013-06-27 19:50:00,63.5,62.0,29.73,SE,126,5.0,11.0,95,0.00,,BKN020,0.00,0.00,VWS V14.01,2013-06-27 23:50:00,
2013-06-27 19:53:00,63.5,62.0,29.73,ESE,119,1.0,4.0,95,0.00,,BKN036,0.00,0.00,VWS V14.01,2013-06-27 23:53:00,
2013-06-27 19:55:00,63.5,62.0,29.73,ESE,119,2.0,8.0,95,0.00,,BKN020,0.00,0.00,VWS V14.01,2013-06-27 23:55:00,
2013-06-27 19:59:00,63.4,62.0,29.73,SE,130,7.0,7.0,95,0.00,,BKN036,0.00,0.00,VWS V14.01,2013-06-27 23:59:00,
2013-06-27 20:00:00,63.4,62.0,29.73,SE,137,6.0,8.0,95,0.00,,BKN020,0.00,0.00,VWS V14.01,2013-06-28 00:00:00,
2013-06-27 20:04:00,63.3,61.8,29.73,East,101,7.0,9.0,95,0.00,,BKN036,0.00,0.00,VWS V14.01,2013-06-28 00:04:00,
2013-06-27 20:05:00,63.3,61.8,29.73,ESE,107,7.0,11.0,95,0.00,,BKN020,0.00,0.00,VWS V14.01,2013-06-28 00:05:00,
2013-06-27 20:09:00,63.2,61.8,29.73,ESE,113,7.0,11.0,95,0.00,,BKN036,0.00,0.00,VWS V14.01,2013-06-28 00:09:00,
2013-06-27 20:10:00,63.2,61.8,29.73,ESE,111,11.0,11.0,95,0.00,,BKN020,0.00,0.00,VWS V14.01,2013-06-28 00:10:00,
2013-06-27 20:14:00,63.1,61.7,29.73,ESE,113,6.0,8.0,95,0.00,,BKN036,0.00,0.00,VWS V14.01,2013-06-28 00:14:00,
2013-06-27 20:15:00,63.1,61.7,29.73,East,86,5.0,11.0,95,0.00,,BKN020,0.00,0.00,VWS V14.01,2013-06-28 00:15:00,
2013-06-27 20:19:00,63.1,61.7,29.73,ESE,106,5.0,7.0,95,0.00,,BKN036,0.00,0.00,VWS V14.01,2013-06-28 00:19:00,
2013-06-27 20:20:00,63.1,61.7,29.73,ESE,107,5.0,8.0,95,0.00,,BKN020,0.00,0.00,VWS V14.01,2013-06-28 00:20:00,
2013-06-27 20:24:00,63.1,61.7,29.74,SE,132,5.0,6.0,95,0.00,,BKN036,0.00,0.00,VWS V14.01,2013-06-28 00:24:00,
2013-06-27 20:25:00,63.1,61.7,29.73,ESE,103,4.0,7.0,95,0.00,,BKN020,0.00,0.00,VWS V14.01,2013-06-28 00:25:00,
2013-06-27 20:30:00,63.1,61.7,29.73,ESE,111,7.0,9.0,95,0.00,,BKN036,0.00,0.00,VWS V14.01,2013-06-28 00:30:00,
2013-06-27 20:35:00,63.1,61.7,29.73,ESE,103,4.0,7.0,95,0.00,,BKN036,0.00,0.00,VWS V14.01,2013-06-28 00:35:00,
2013-06-27 20:40:00,63.0,61.5,29.73,ESE,120,5.0,8.0,95,0.00,,BKN036,0.00,0.00,VWS V14.01,2013-06-28 00:40:00,
2013-06-27 20:45:00,63.1,61.7,29.73,ESE,108,4.0,6.0,95,0.00,,BKN036,0.00,0.00,VWS V14.01,2013-06-28 00:45:00,
2013-06-27 20:50:00,63.1,61.9,29.73,ESE,108,1.0,6.0,96,0.00,,BKN020,0.00,0.00,VWS V14.01,2013-06-28 00:50:00,
2013-06-27 20:51:00,63.1,61.9,29.73,ESE,109,2.0,4.0,96,0.00,,BKN036,0.00,0.00,VWS V14.01,2013-06-28 00:51:00,
2013-06-27 20:55:00,63.1,61.7,29.73,ESE,109,2.0,4.0,95,0.00,,BKN020,0.00,0.00,VWS V14.01,2013-06-28 00:55:00,
2013-06-27 20:56:00,63.1,61.7,29.73,ESE,108,4.0,6.0,95,0.00,,BKN036,0.00,0.00,VWS V14.01,2013-06-28 00:56:00,
2013-06-27 21:00:00,63.1,61.9,29.73,ESE,107,4.0,6.0,96,0.00,,BKN020,0.00,0.00,VWS V14.01,2013-06-28 01:00:00,
2013-06-27 21:01:00,63.1,61.9,29.73,East,101,4.0,6.0,96,0.00,,BKN036,0.00,0.00,VWS V14.01,2013-06-28 01:01:00,
2013-06-27 21:05:00,63.0,61.5,29.73,East,93,6.0,6.0,95,0.00,,BKN020,0.00,0.00,VWS V14.01,2013-06-28 01:05:00,
2013-06-27 21:06:00,63.0,61.8,29.73,East,86,4.0,8.0,96,0.00,,BKN036,0.00,0.00,VWS V14.01,2013-06-28 01:06:00,
2013-06-27 21:10:00,63.0,61.8,29.73,East,95,2.0,8.0,96,0.00,,BKN020,0.00,0.00,VWS V14.01,2013-06-28 01:10:00,
2013-06-27 21:12:00,63.0,61.8,29.73,East,90,4.0,7.0,96,0.00,,BKN036,0.00,0.00,VWS V14.01,2013-06-28 01:12:00,
2013-06-27 21:15:00,63.0,61.8,29.73,East,92,4.0,7.0,96,0.00,,BKN020,0.00,0.00,VWS V14.01,2013-06-28 01:15:00,
2013-06-27 21:17:00,63.0,61.8,29.73,East,95,1.0,6.0,96,0.00,,BKN036,0.00,0.00,VWS V14.01,2013-06-28 01:17:00,
2013-06-27 21:20:00,63.0,61.8,29.73,East,95,1.0,6.0,96,0.00,,BKN020,0.00,0.00,VWS V14.01,2013-06-28 01:20:00,
2013-06-27 21:22:00,63.1,61.9,29.73,East,94,5.0,5.0,96,0.00,,BKN036,0.00,0.00,VWS V14.01,2013-06-28 01:22:00,
2013-06-27 21:25:00,63.0,61.8,29.73,East,94,5.0,6.0,96,0.00,,BKN020,0.00,0.00,VWS V14.01,2013-06-28 01:25:00,
2013-06-27 21:27:00,63.1,61.9,29.73,East,85,3.0,5.0,96,0.00,,BKN036,0.00,0.00,VWS V14.01,2013-06-28 01:27:00,
2013-06-27 21:30:00,63.1,61.9,29.73,East,85,3.0,5.0,96,0.00,,BKN020,0.00,0.00,VWS V14.01,2013-06-28 01:30:00,
2013-06-27 21:32:00,63.0,61.8,29.73,East,85,5.0,9.0,96,0.00,,BKN036,0.00,0.00,VWS V14.01,2013-06-28 01:32:00,
2013-06-27 21:35:00,63.0,61.8,29.73,East,85,5.0,9.0,96,0.00,,BKN020,0.00,0.00,VWS V14.01,2013-06-28 01:35:00,
2013-06-27 21:37:00,62.9,61.5,29.73,ENE,72,3.0,6.0,95,0.00,,BKN036,0.00,0.00,VWS V14.01,2013-06-28 01:37:00,
2013-06-27 21:40:00,62.9,61.5,29.73,ENE,72,3.0,6.0,95,0.00,,BKN020,0.00,0.00,VWS V14.01,2013-06-28 01:40:00,
2013-06-27 21:42:00,62.8,61.3,29.73,East,88,7.0,8.0,95,0.00,,BKN036,0.00,0.00,VWS V14.01,2013-06-28 01:42:00,
2013-06-27 21:45:00,62.8,61.3,29.73,East,88,7.0,8.0,95,0.00,,BKN020,0.00,0.00,VWS V14.01,2013-06-28 01:45:00,
2013-06-27 21:47:00,62.8,61.7,29.73,ESE,111,5.0,8.0,96,0.00,,BKN036,0.00,0.00,VWS V14.01,2013-06-28 01:47:00,
2013-06-27 21:50:00,62.8,61.7,29.73,ESE,111,5.0,8.0,96,0.00,,BKN020,0.00,0.00,VWS V14.01,2013-06-28 01:50:00,
2013-06-27 21:52:00,62.7,61.5,29.74,East,86,3.0,8.0,96,0.00,,BKN036,0.00,0.00,VWS V14.01,2013-06-28 01:52:00,
2013-06-27 21:55:00,62.7,61.5,29.74,East,86,3.0,8.0,96,0.00,,BKN020,0.00,0.00,VWS V14.01,2013-06-28 01:55:00,
2013-06-27 21:57:00,62.7,61.5,29.74,East,86,2.0,4.0,96,0.00,,BKN036,0.00,0.00,VWS V14.01,2013-06-28 01:57:00,
2013-06-27 22:00:00,62.7,61.5,29.74,East,86,2.0,4.0,96,0.00,,BKN020,0.00,0.00,VWS V14.01,2013-06-28 02:00:00,
2013-06-27 22:02:00,62.7,61.5,29.74,East,94,4.0,7.0,96,0.00,,BKN036,0.00,0.00,VWS V14.01,2013-06-28 02:02:00,
2013-06-27 22:05:00,62.7,61.5,29.74,East,94,4.0,7.0,96,0.00,,BKN020,0.00,0.00,VWS V14.01,2013-06-28 02:05:00,
2013-06-27 22:07:00,62.7,61.5,29.74,East,89,3.0,7.0,96,0.00,,BKN036,0.00,0.00,VWS V14.01,2013-06-28 02:07:00,
2013-06-27 22:10:00,62.7,61.5,29.74,East,89,3.0,7.0,96,0.00,,BKN020,0.00,0.00,VWS V14.01,2013-06-28 02:10:00,
2013-06-27 22:12:00,62.6,61.5,29.74,East,95,2.0,6.0,96,0.00,,BKN036,0.00,0.00,VWS V14.01,2013-06-28 02:12:00,
2013-06-27 22:15:00,62.6,61.5,29.74,East,95,2.0,6.0,96,0.00,,BKN020,0.00,0.00,VWS V14.01,2013-06-28 02:15:00,
2013-06-27 22:17:00,62.6,61.5,29.74,East,96,4.0,5.0,96,0.00,,BKN036,0.00,0.00,VWS V14.01,2013-06-28 02:17:00,
2013-06-27 22:20:00,62.6,61.5,29.74,East,96,4.0,5.0,96,0.00,,BKN020,0.00,0.00,VWS V14.01,2013-06-28 02:20:00,
2013-06-27 22:22:00,62.6,61.5,29.73,East,96,2.0,5.0,96,0.00,,BKN036,0.00,0.00,VWS V14.01,2013-06-28 02:22:00,
2013-06-27 22:25:00,62.6,61.5,29.73,East,96,2.0,5.0,96,0.00,,BKN020,0.00,0.00,VWS V14.01,2013-06-28 02:25:00,
2013-06-27 22:27:00,62.7,61.5,29.73,East,96,4.0,5.0,96,0.00,,BKN036,0.00,0.00,VWS V14.01,2013-06-28 02:27:00,
2013-06-27 22:30:00,62.7,61.5,29.73,East,96,4.0,5.0,96,0.00,,BKN020,0.00,0.00,VWS V14.01,2013-06-28 02:30:00,
2013-06-27 22:32:00,62.7,61.5,29.73,East,96,2.0,6.0,96,0.00,,BKN036,0.00,0.00,VWS V14.01,2013-06-28 02:32:00,
2013-06-27 22:35:00,62.7,61.5,29.73,East,96,2.0,6.0,96,0.00,,BKN020,0.00,0.00,VWS V14.01,2013-06-28 02:35:00,
2013-06-27 22:37:00,62.7,61.5,29.72,East,97,2.0,4.0,96,0.00,,BKN036,0.00,0.00,VWS V14.01,2013-06-28 02:37:00,
2013-06-27 22:40:00,62.7,61.5,29.72,East,97,2.0,4.0,96,0.00,,BKN020,0.00,0.00,VWS V14.01,2013-06-28 02:40:00,
2013-06-27 22:42:00,62.7,61.5,29.72,East,94,4.0,6.0,96,0.00,,BKN036,0.00,0.00,VWS V14.01,2013-06-28 02:42:00,
2013-06-27 22:45:00,62.7,61.5,29.72,East,94,4.0,6.0,96,0.00,,BKN020,0.00,0.00,VWS V14.01,2013-06-28 02:45:00,
2013-06-27 22:47:00,62.6,61.5,29.72,ENE,74,6.0,7.0,96,0.00,,BKN036,0.00,0.00,VWS V14.01,2013-06-28 02:47:00,
2013-06-27 22:50:00,62.6,61.5,29.72,ENE,74,6.0,7.0,96,0.00,,BKN020,0.00,0.00,VWS V14.01,2013-06-28 02:50:00,
2013-06-27 22:52:00,62.6,61.5,29.72,East,89,3.0,6.0,96,0.00,,BKN036,0.00,0.00,VWS V14.01,2013-06-28 02:52:00,
2013-06-27 22:55:00,62.6,61.5,29.72,East,89,3.0,6.0,96,0.00,,BKN020,0.00,0.00,VWS V14.01,2013-06-28 02:55:00,
2013-06-27 22:57:00,62.6,61.5,29.72,East,88,4.0,4.0,96,0.00,,BKN036,0.00,0.00,VWS V14.01,2013-06-28 02:57:00,
2013-06-27 23:00:00,62.6,61.5,29.72,East,88,4.0,4.0,96,0.00,,BKN020,0.00,0.00,VWS V14.01,2013-06-28 03:00:00,
2013-06-27 23:02:00,62.6,61.5,29.71,East,81,2.0,5.0,96,0.00,,BKN036,0.00,0.00,VWS V14.01,2013-06-28 03:02:00,
2013-06-27 23:05:00,62.6,61.5,29.71,East,81,2.0,5.0,96,0.00,,BKN020,0.00,0.00,VWS V14.01,2013-06-28 03:05:00,
2013-06-27 23:07:00,62.6,61.5,29.71,East,96,4.0,6.0,96,0.00,,BKN036,0.00,0.00,VWS V14.01,2013-06-28 03:07:00,
2013-06-27 23:10:00,62.6,61.5,29.71,East,96,4.0,6.0,96,0.00,,BKN020,0.00,0.00,VWS V14.01,2013-06-28 03:10:00,
2013-06-27 23:13:00,62.6,61.5,29.72,East,97,6.0,6.0,96,0.00,,BKN036,0.00,0.00,VWS V14.01,2013-06-28 03:13:00,
2013-06-27 23:15:00,62.6,61.5,29.72,East,97,4.0,7.0,96,0.00,,BKN020,0.00,0.00,VWS V14.01,2013-06-28 03:15:00,
2013-06-27 23:18:00,62.6,61.5,29.71,East,95,5.0,6.0,96,0.00,,BKN036,0.00,0.00,VWS V14.01,2013-06-28 03:18:00,
2013-06-27 23:20:00,62.6,61.5,29.72,East,96,5.0,6.0,96,0.00,,BKN020,0.00,0.00,VWS V14.01,2013-06-28 03:20:00,
2013-06-27 23:23:00,62.6,61.5,29.71,ENE,78,5.0,8.0,96,0.00,,BKN036,0.00,0.00,VWS V14.01,2013-06-28 03:23:00,
2013-06-27 23:25:00,62.6,61.5,29.71,East,82,5.0,8.0,96,0.00,,BKN020,0.00,0.00,VWS V14.01,2013-06-28 03:25:00,
2013-06-27 23:28:00,62.5,61.3,29.70,ESE,103,7.0,8.0,96,0.00,,BKN036,0.00,0.00,VWS V14.01,2013-06-28 03:28:00,
2013-06-27 23:30:00,62.5,61.3,29.71,East,90,5.0,8.0,96,0.00,,BKN020,0.00,0.00,VWS V14.01,2013-06-28 03:30:00,
2013-06-27 23:34:00,62.5,61.3,29.71,ESE,104,5.0,6.0,96,0.00,,BKN036,0.00,0.00,VWS V14.01,2013-06-28 03:34:00,
2013-06-27 23:35:00,62.5,61.3,29.71,East,101,5.0,8.0,96,0.00,,BKN020,0.00,0.00,VWS V14.01,2013-06-28 03:35:00,
2013-06-27 23:39:00,62.5,61.3,29.71,SE,126,8.0,8.0,96,0.00,,BKN036,0.00,0.00,VWS V14.01,2013-06-28 03:39:00,
2013-06-27 23:40:00,62.5,61.3,29.71,ESE,113,6.0,7.0,96,0.00,,BKN020,0.00,0.00,VWS V14.01,2013-06-28 03:40:00,
2013-06-27 23:44:00,62.5,61.3,29.70,ESE,105,4.0,8.0,96,0.00,,BKN036,0.00,0.00,VWS V14.01,2013-06-28 03:44:00,
2013-06-27 23:45:00,62.5,61.3,29.71,East,94,7.0,8.0,96,0.00,,BKN020,0.00,0.00,VWS V14.01,2013-06-28 03:45:00,
2013-06-27 23:49:00,62.4,61.2,29.70,East,84,4.0,8.0,96,0.00,,BKN036,0.00,0.00,VWS V14.01,2013-06-28 03:49:00,
2013-06-27 23:50:00,62.5,61.3,29.70,East,98,7.0,11.0,96,0.00,,BKN020,0.00,0.00,VWS V14.01,2013-06-28 03:50:00,
2013-06-27 23:54:00,62.4,61.2,29.70,East,83,4.0,5.0,96,0.00,,BKN036,0.00,0.00,VWS V14.01,2013-06-28 03:54:00,
2013-06-27 23:55:00,62.5,61.3,29.70,East,82,4.0,8.0,96,0.00,,BKN020,0.00,0.00,VWS V14.01,2013-06-28 03:55:00,
2013-06-27 23:59:00,62.5,61.3,29.71,East,98,4.0,6.0,96,0.00,,OVC005,0.00,0.00,VWS V14.01,2013-06-28 03:59:00,